Location: Dittelbrunn
(50.0738°N, 10.2196°E)
Time: 15:09:00
(UTC+00:00)

H-2A R/B - Pass Details

Date: 18 September 2020
Orbit: 734 x 836 km, 98.2° (Epoch: 27 October)

Event Time Altitude Azimuth Distance (km) Brightness Sun altitude
Rises 19:14:21 0° 194° (SSW) 3,162 5.1 -17.7°
Reaches altitude 10° 19:16:52 10° 206° (SSW) 2,252 4.4 -18.1°
Maximum altitude 19:21:11 30° 266° (W) 1,345 3.9 -18.7°
Drops below altitude 10° 19:25:36 10° 327° (NNW) 2,312 5.4 -19.4°
Sets 19:28:14 0° 338° (NNW) 3,261 6.0 -19.7°
